www.pogodaiklimat.ru

Погода и климат >> Архив погоды >> Австрия >> Пойсдорф


ПОГОДА в Пойсдорфе

  • Прогноз погоды в Пойсдорфе
  • Монитор погоды в Пойсдорфе

АРХИВ ПОГОДЫ в Пойсдорфе

Время (UTC), дата Ветер
(напр.,м/с)
 
Видим.   Явления Облачность Т
(С)
Тd
(С)
f
(%)
Тe
(С)
Тes
(С)
Комфортность P
(гПа)
Po
(гПа)
Тmin
(С)
Tmax
(С)
R
(мм)
R24
(мм)
S
(см)
01 16.09 штиль 0 н/о н/о +12.1 +11.0 93 +11 +11 1020.0 995.3
02 16.09 В 1 н/о н/о +11.8 +10.7 93 +12 +12 1019.8 995.1
03 16.09 штиль 0 н/о н/о +11.7 +10.6 93 +11 +11 1019.5 994.8
04 16.09 В 1 н/о н/о +11.6 +10.6 94 +11 +11 1019.4 994.7
05 16.09 штиль 0 15 км 3/0
[Ci]
+11.0 +10.1 94 +10 +10 1019.3 994.5
06 16.09 штиль 0 15 км 3/0
[Ci]
+14.5 +12.1 86 +14 +15 1019.3 994.8 +10.9 +17.3
07 16.09 Ю 1 н/о н/о +18.5 +13.6 73 +20 +20 1019.3 995.2
08 16.09 З 2 н/о н/о +20.5 +14.0 66 +24 +24 комфорт 1019.2 995.3
09 16.09 З 2 н/о н/о +22.6 +13.9 58 +26 +26 жарко 1019.0 995.2
10 16.09 З 2 н/о н/о +23.7 +11.8 47 +25 +25 комфорт 1018.5 994.8
11 16.09 З 2 н/о н/о +24.5 +9.9 40 +25 +25 комфорт 1018.0 994.4
12 16.09 З 2 30 км 5/5 600 м
[Sc]
+25.6 +10.4 38 +26 +31 жарко 1016.9 993.4
13 16.09 СЗ 2 н/о н/о +26.1 +10.9 39 +27 +27 жарко 1016.2 992.7
14 16.09 СЗ 2 н/о н/о +26.2 +10.3 37 +27 +27 жарко 1015.5 992.1
15 16.09 СЗ 1 30 км 9/9 600 м
[Sc]
+24.5 +11.9 45 +26 +26 жарко 1015.4 991.8
16 16.09 С 1 н/о н/о +23.4 +12.9 52 +26 +26 жарко 1015.1 991.5
17 16.09 С 1 н/о н/о +21.4 +13.3 60 +24 +24 комфорт 1014.9 991.1
18 16.09 З 1 20 км 9/9 600 м
[Sc]
+19.7 +13.4 67 +23 +23 комфорт 1015.2 991.3 +13.8 +26.9
19 16.09 штиль 0 н/о н/о +18.4 +12.9 70 +19 +19 1015.4 991.4
20 16.09 штиль 0 н/о н/о +18.3 +13.1 72 +19 +19 1015.6 991.6
21 16.09 С 3 н/о н/о +18.8 +12.2 65 +20 +20 1015.9 991.9 0.0
22 16.09 С 1 н/о н/о +18.0 +13.0 73 +19 +19 1015.6 991.5 0.0
23 16.09 С 1 н/о н/о +17.3 +13.1 76 +18 +18 1015.2 991.1 0.0
00 17.09 СЗ 1 н/о н/о +16.8 +13.0 78 +18 +18 1015.7 991.5 0.0
01 17.09 С 1 н/о н/о +16.6 +13.0 79 +17 +17 1015.4 991.2 0.0
02 17.09 штиль 0 н/о н/о +16.1 +13.0 82 +16 +16 1015.2 991.0
03 17.09 СЗ 1 н/о н/о +16.2 +12.8 80 +17 +17 1015.0 990.8 0.0
04 17.09 СЗ 1 н/о н/о +15.9 +13.3 85 +17 +17 1015.1 990.9 0.0
05 17.09 СЗ 1 15 км 9/9 600 м
[Sc]
+16.1 +13.2 83 +17 +17 1015.3 991.1
06 17.09 СЗ 1 15 км слаб. дождь 10/10 600 м
[Frnb]
+16.0 +13.9 87 +17 +17 1015.7 991.5 +15.9 +20.0 0.0
07 17.09 СЗ 2 н/о в посл. час осадки н/о +14.8 +13.0 89 +14 +14 1016.5 992.1 0.7
08 17.09 СЗ 2 н/о в посл. час осадки н/о +14.8 +12.1 84 +14 +14 1016.8 992.4 0.1
09 17.09 СЗ 2 20 км {дождь} 9/9 600 м
[Sc]
+16.3 +10.5 69 +16 +17 1016.9 992.6 0.8
10 17.09 З 2 н/о н/о +16.6 +10.1 65 +17 +17 1016.5 992.3
11 17.09 З 2 н/о н/о +17.5 +9.5 59 +18 +18 1016.2 992.0
12 17.09 З 2 20 км {дождь} 9/9 600 м
[Sc]
+17.8 +9.6 59 +18 +19 1015.4 991.3 0.8
13 17.09 З 2 н/о н/о +18.7 +10.0 57 +20 +20 1014.7 990.7
14 17.09 З 2 н/о н/о +18.5 +11.3 63 +20 +20 1014.3 990.3
15 17.09 З 3 н/о н/о +19.1 +11.7 62 +20 +20 1013.6 989.7
16 17.09 СЗ 2 н/о н/о +18.8 +11.5 63 +20 +20 1013.3 989.3
17 17.09 З 2 н/о н/о +17.6 +10.4 63 +18 +18 1013.6 989.5
18 17.09 штиль 0 н/о н/о +14.0 +10.0 77 +14 +14 1014.3 989.9 +14.0 +19.4 0.8
19 17.09 В 1 н/о н/о +12.8 +10.0 83 +13 +13 1014.9 990.4
20 17.09 СЗ 2 н/о н/о +14.9 +9.9 72 +15 +15 1015.5 991.2
21 17.09 СЗ 2 н/о н/о +15.0 +7.6 61 +15 +15 1015.9 991.5
22 17.09 СЗ 3 н/о н/о +15.0 +7.0 59 +14 +14 1016.7 992.3
23 17.09 СЗ 4 н/о н/о +13.8 +6.1 60 +12 +12 1017.6 993.1
00 18.09 СЗ 3 н/о н/о +13.4 +5.4 58 +12 +12 1018.1 993.5
01 18.09 З 3 н/о н/о +12.0 +5.1 63 +11 +11 1018.7 994.0
02 18.09 СЗ 3 н/о н/о +11.5 +4.3 61 +10 +10 1019.4 994.6
03 18.09 СЗ 2 н/о н/о +10.3 +4.3 66 +9 +9 1020.2 995.3
04 18.09 СЗ 3 н/о н/о +10.0 +3.0 62 +8 +8 1021.1 996.2
05 18.09 З 3 15 км 3/3 600 м
[Sc]
+9.8 +3.1 63 +8 +8 1021.7 996.7
06 18.09 З 2 20 км 3/3 600 м
[Sc]
+10.5 +3.5 62 +9 +10 1022.2 997.3 +9.7 +15.5
07 18.09 СЗ 3 н/о н/о +12.5 +3.2 53 +11 +11 1022.9 998.1
08 18.09 СЗ 3 н/о н/о +13.6 +3.4 50 +13 +13 1023.6 998.9
09 18.09 СЗ 3 н/о н/о +14.7 +3.6 47 +14 +14 1023.5 998.9
10 18.09 З 3 н/о н/о +15.3 +2.1 41 +15 +15 1023.7 999.1
11 18.09 СЗ 4 н/о н/о +16.4 +1.0 35 +16 +16 1023.5 999.0
12 18.09 СЗ 2 30 км 1/1 600 м
[Cu hum]
+17.3 +1.2 34 +18 +26 1022.9 998.5
13 18.09 СЗ 2 н/о н/о +17.5 +0.7 32 +18 +18 1022.3 998.0
14 18.09 З 3 н/о н/о +18.1 +0.5 31 +18 +18 1022.3 998.0
15 18.09 СЗ 2 30 км 1/0
[As trans]
+17.2 +0.9 33 +18 +20 1022.1 997.7
16 18.09 С 3 н/о н/о +15.9 +1.9 39 +16 +16 1022.2 997.7
17 18.09 СЗ 2 н/о н/о +13.6 +2.9 48 +13 +13 1022.6 997.9
18 18.09 С 2 20 км ясно +11.2 +2.8 56 +10 +10 1023.4 998.5 +10.3 +18.4
19 18.09 С 2 н/о н/о +9.9 +3.2 63 +9 +9 1023.9 998.9
20 18.09 С 2 н/о н/о +8.9 +3.4 68 +7 +7 1024.3 999.2
21 18.09 С 2 н/о н/о +9.8 +3.8 66 +8 +8 1024.5 999.5
22 18.09 З 1 н/о н/о +9.6 +4.8 72 +9 +9 1024.6 999.5
23 18.09 З 1 н/о н/о +9.8 +4.4 69 +10 +10 1024.6 999.6
00 19.09 З 1 н/о н/о +10.4 +3.7 63 +10 +10 1024.8 999.8
01 19.09 С 1 н/о н/о +9.8 +4.0 67 +10 +10 1024.7 999.7
02 19.09 З 1 н/о н/о +9.0 +4.4 73 +9 +9 1024.8 999.7
03 19.09 З 1 н/о н/о +8.5 +3.4 70 +8 +8 1025.0 999.8
04 19.09 СЗ 1 н/о н/о +7.2 +3.1 75 +6 +6 1025.3 1000.0
05 19.09 З 2 15 км 3/3 600 м
[Sc]
+7.9 +3.6 74 +6 +6 1025.6 1000.4
06 19.09 СЗ 2 15 км 3/3 600 м
[Sc]
+9.2 +4.0 70 +8 +8 1025.9 1000.8 +6.8 +11.6
07 19.09 С 2 н/о н/о +11.8 +4.7 62 +11 +11 1026.5 1001.6
08 19.09 С 2 н/о н/о +13.1 +4.9 57 +13 +13 1026.9 1002.1
09 19.09 СЗ 2 20 км 3/3 600 м
[Cu med, cong]
+13.9 +4.1 52 +14 +19 1026.9 1002.2
10 19.09 С 2 н/о н/о +14.3 +2.0 43 +14 +14 1026.8 1002.1
11 19.09 СЗ 3 н/о н/о +15.1 +1.7 40 +15 +15 1026.4 1001.8
12 19.09 СЗ 2 30 км 4/4 600 м
[Cu med, cong]
+15.7 +2.1 40 +16 +21 1026.2 1001.6
13 19.09 С 4 н/о н/о +15.6 +2.4 41 +15 +15 1026.4 1001.8
14 19.09 С 4 н/о н/о +15.1 +2.1 41 +14 +14 1026.1 1001.5
15 19.09 СЗ 3 30 км 3/3 600 м
[Cu med, cong]
+14.9 +1.5 40 +14 +16 1026.2 1001.5
16 19.09 СЗ 2 н/о н/о +14.4 +1.2 41 +14 +14 1026.2 1001.5
17 19.09 СЗ 2 н/о н/о +12.5 +2.2 49 +12 +12 1026.9 1002.0
18 19.09 СЗ 1 20 км 3/3 600 м
[Sc]
+10.4 +1.4 54 +10 +10 1027.7 1002.6 +8.7 +17.2
19 19.09 СЗ 2 н/о н/о +10.1 +1.3 54 +9 +9 1028.3 1003.2
20 19.09 СЗ 2 н/о н/о +9.0 +1.9 61 +8 +8 1028.7 1003.5
21 19.09 СЗ 1 н/о н/о +7.6 +2.6 71 +7 +7 1029.2 1003.8
22 19.09 СЗ 1 н/о н/о +7.5 +2.7 72 +7 +7 1029.2 1003.8
23 19.09 штиль 0 н/о н/о +6.0 +2.1 76 +5 +5 1029.5 1004.0
00 20.09 З 1 н/о н/о +6.2 +2.5 77 +5 +5 1029.3 1003.8
01 20.09 З 1 н/о н/о +5.2 +2.3 82 +4 +4 1029.2 1003.6
02 20.09 З 2 н/о н/о +5.3 +2.4 82 +3 +3 1029.3 1003.7
03 20.09 СЗ 2 н/о н/о +5.3 +2.4 82 +3 +3 1029.2 1003.6
04 20.09 СЗ 2 н/о н/о +5.0 +2.3 83 +2 +2 1029.3 1003.7
05 20.09 СЗ 2 н/о н/о +4.9 +2.3 83 +2 +2 1029.3 1003.7
06 20.09 З 1 н/о н/о +7.2 +3.1 75 +6 +6 1029.5 1004.1 +4.7 +10.4
07 20.09 ЮЗ 2 н/о н/о +10.0 +3.9 66 +9 +9 1029.5 1004.4
08 20.09 ЮЗ 1 н/о н/о +11.9 +4.4 60 +12 +12 1029.8 1004.8
09 20.09 СВ 1 20 км 3/1 600 м
[Cu med, cong As trans]
+14.5 +3.8 49 +15 +22 1029.2 1004.5
10 20.09 С 2 н/о н/о +15.6 +3.3 44 +16 +16 1028.8 1004.2
11 20.09 С 1 н/о н/о +16.9 +3.6 41 +18 +18 1028.1 1003.6
12 20.09 З 1 30 км 4/4 600 м
[Cu med, cong]
+16.3 +2.7 40 +17 +23 1027.8 1003.2
14 20.09 СЗ 1 н/о н/о +16.5 +2.3 38 +17 +17 1026.9 1002.4
15 20.09 ЮЗ 2 н/о н/о +17.0 +1.6 35 +17 +17 1026.4 1001.9
16 20.09 З 1 н/о н/о +16.2 +2.1 39 +17 +17 1026.5 1002.0
17 20.09 СЗ 1 н/о н/о +13.3 +3.2 50 +14 +14 1026.8 1002.0
18 20.09 С 3 н/о н/о +11.6 +2.7 54 +10 +10 1027.4 1002.4 +6.6 +17.6
19 20.09 С 2 н/о н/о +9.4 +3.1 65 +8 +8 1028.1 1002.9
20 20.09 С 2 н/о н/о +9.4 +3.2 65 +8 +8 1028.3 1003.1
21 20.09 штиль 0 н/о н/о +7.6 +3.5 75 +7 +7 1028.5 1003.2
22 20.09 штиль 0 н/о н/о +6.7 +3.3 79 +6 +6 1028.5 1003.1
23 20.09 З 1 н/о н/о +6.2 +3.1 81 +5 +5 1028.1 1002.7
00 21.09 штиль 0 н/о н/о +5.4 +3.1 85 +4 +4 1028.4 1002.9
01 21.09 штиль 0 н/о н/о +4.9 +2.7 86 +4 +4 1028.3 1002.7
02 21.09 З 1 н/о н/о +4.6 +2.6 87 +3 +3 1028.1 1002.5
03 21.09 штиль 0 н/о н/о +4.2 +2.4 88 +3 +3 1027.8 1002.2
04 21.09 штиль 0 н/о н/о +3.4 +1.9 90 +2 +2 1027.8 1002.1
05 21.09 штиль 0 15 км 1/0
[As trans]
+3.3 +1.9 91 +2 +2 1027.9 1002.2
06 21.09 штиль 0 15 км ясно +6.1 +3.1 81 +5 +6 1027.3 1001.9 +3.3 +11.8
07 21.09 ЮВ 1 н/о н/о +9.7 +4.8 71 +9 +9 1027.5 1002.4
08 21.09 ЮВ 2 н/о н/о +12.4 +4.6 59 +12 +12 1027.4 1002.5
09 21.09 В 2 20 км ясно +15.3 +5.6 52 +15 +22 1026.7 1002.1
10 21.09 Ю 4 н/о н/о +16.9 +4.6 44 +16 +16 1026.1 1001.6
11 21.09 Ю 5 н/о н/о +18.2 +3.6 38 +18 +18 1025.4 1001.1
12 21.09 Ю 5 30 км ясно +18.7 +4.5 39 +19 +23 1025.0 1000.7
13 21.09 ЮВ 4 н/о н/о +19.5 +5.0 38 +20 +20 1024.2 1000.0
14 21.09 ЮВ 4 н/о н/о +19.3 +4.1 37 +20 +20 1023.5 999.3
15 21.09 ЮВ 5 30 км ясно +18.9 +3.2 35 +19 +20 1023.1 998.9
16 21.09 Ю 4 н/о н/о +18.3 +3.1 36 +18 +18 1022.8 998.5
17 21.09 ЮВ 2 н/о н/о +16.5 +4.1 44 +17 +17 1022.8 998.4
18 21.09 В 2 15 км ясно +14.4 +4.6 52 +14 +14 1023.1 998.5 +5.5 +19.7
19 21.09 В 2 н/о н/о +13.2 +4.7 56 +13 +13 1022.9 998.2
20 21.09 В 2 н/о н/о +12.3 +4.9 61 +12 +12 1022.7 997.9
21 21.09 В 2 н/о н/о +11.3 +4.6 63 +10 +10 1022.6 997.7
22 21.09 В 2 н/о н/о +11.2 +4.5 63 +10 +10 1022.0 997.1
23 21.09 В 1 н/о н/о +9.4 +4.4 71 +9 +9 1021.9 996.9
00 22.09 В 2 н/о н/о +9.4 +4.3 70 +8 +8 1021.5 996.5
01 22.09 В 2 н/о н/о +10.6 +4.0 64 +9 +9 1020.9 996.0
02 22.09 В 3 н/о н/о +9.9 +3.9 66 +8 +8 1020.6 995.7
03 22.09 В 3 н/о н/о +9.3 +3.8 68 +7 +7 1020.1 995.1
04 22.09 В 3 н/о н/о +8.3 +3.7 73 +6 +6 1019.9 994.8
05 22.09 В 3 20 км 1/0
[As trans]
+8.2 +3.5 72 +6 +6 1019.8 994.7
06 22.09 В 3 20 км 1/0
[As trans]
+9.9 +3.8 66 +8 +8 1019.6 994.7 +8.1 +14.5
07 22.09 В 5 н/о н/о +12.5 +4.1 57 +10 +10 1019.4 994.7
08 22.09 ЮВ 5 н/о н/о +15.7 +4.0 46 +15 +15 1018.7 994.3
09 22.09 ЮВ 5 20 км 1/0
[As trans]
+16.9 +3.4 41 +16 +20 1017.9 993.6
10 22.09 ЮВ 7 н/о н/о +18.5 +3.5 37 +18 +18 1017.1 993.0
11 22.09 ЮВ 8
{14}
н/о н/о +19.4 +3.8 36 +19 +19 1016.4 992.4
12 22.09 ЮВ 7
{14}
н/о н/о +20.3 +3.8 34 +20 +20 1015.4 991.5
13 22.09 ЮВ 7
{14}
н/о н/о +21.1 +4.2 33 +21 +21 комфорт 1014.7 990.8
14 22.09 ЮВ 6 н/о н/о +21.3 +4.2 33 +22 +22 комфорт 1014.0 990.2
15 22.09 ЮВ 6
{14}
н/о н/о +20.2 +4.3 35 +20 +20 1013.6 989.7
16 22.09 ЮВ 6 н/о н/о +20.0 +3.0 32 +20 +20 1013.5 989.6
17 22.09 ЮВ 4 н/о н/о +18.8 +3.4 36 +19 +19 1013.3 989.3
18 22.09 В 2
{14}
20 км 4/0
[As trans]
+16.7 +4.7 45 +17 +17 1013.4 989.2 +9.5 +21.5
19 22.09 В 3 н/о н/о +16.1 +5.2 48 +16 +16 1013.1 988.9
20 22.09 В 3 н/о н/о +15.9 +5.1 49 +16 +16 1013.0 988.8
21 22.09 В 3 н/о н/о +15.5 +5.1 50 +15 +15 1012.8 988.5
22 22.09 В 3 н/о н/о +15.1 +5.1 51 +15 +15 1012.5 988.2
23 22.09 В 3 н/о н/о +14.9 +5.4 53 +14 +14 1012.4 988.1

 

Местоположение метеостанции Пойсдорф (Австрия): широта 48.67 долгота 16.63 высота над уровнем моря 207 м.

В архиве по умолчанию представлена погода в Пойсдорфе за последнюю неделю. Архивные данные за месяц целиком и за предыдущие месяцы, начиная с января 2011 года, Вы можете получить, выбрав интересующий диапазон дат из раскрывающегося списка и нажав кнопку "Ввод!".


*Определитесь, кто Вы:
робот инопланетянин человек

Внимание! Время в таблицах - всемирное. Для получения местного времени необходимо прибавить поправку, которая равна 1 ч.

Смотрите также архив погоды в соседних городах и на ближайших метеорологических станциях:

Погода в Мистельбахе (Австрия) (11 км)
Погода в Лейзер Берге (Австрия) (22 км)
Погода в Зверндорф-Маршег (Австрия) (41 км)
Погода в Штоккерау (Австрия) (46 км)
Погода в Кучарловице (Чехия) (47 км)
Погода в Малацки (Словакия) (49 км)
Погода в Вене Донауфельд (Австрия) (49 км)
Погода в Вене (Австрия) (50 км)
Погода в Реце (Австрия) (51 км)
Погода в Грос-Энцерсдорфе (Австрия) (52 км)

Пояснения к столбцам:

Ветер - указаны скорость ветра в м/с - средняя за 10 мин, порывы в срок и между сроками (в фигурных скобках) и направление, откуда дует ветер: С - северный, СВ - северо-восточный, В - восточный, ЮВ - юго-восточный, Ю - южный, ЮЗ - юго-западный, З - западный, СЗ - северо-западный.
Видимость - горизонтальная дальность видимости в метрах или километрах. При видимости от 1 до 10 км при отсутствии осадков обычно наблюдается дымка, при ухудшении видимости до 1 км и менее - туман. В сухую погоду видимость может ухудшаться дымом, пылью или мглою.
Явления - указаны атмосферные явления, наблюдавшиеся в срок или в последний час перед сроком; фигурными скобками обозначены явления, наблюдавшиеся между сроками (за 1-3 часа до срока); квадратными скобками обозначены град или гололедные отложения с указанием их диаметра в мм.
Облачность - указаны через наклонную черту общая и нижняя облачность в баллах и высота нижней границы облаков в метрах; квадратными скобками обозначены формы облаков: Ci - перистые, Cs - перисто-слоистые, Cc - перисто-кучевые, Ac - высококучевые, As - высокослоистые, Sc - слоисто-кучевые, Ns - слоисто-дождевые, Cu - кучевые, Cb - кучево-дождевые. Подробнее классификацию облаков см. в Атласе облаков (PDF).
T - Температура воздуха - температура, измеренная на высоте 2 м над землей.
Td - Температура точки росы - температура, при понижении до которой содержащийся в воздухе водяной пар достигнет насыщения.
f - Относительная влажность воздуха - влажноcть воздуха, измеренная на высоте 2 м над землей.
Te - Эффективная температура - температура, которую ощущает одетый по сезону человек в тени. Характеристика душности погоды. При расчете учитывается влияние влажности воздуха и скорости ветра на теплоощущения человека.
Tes - Эффективная температура на солнце - температура, которую ощущает человек, с поправкой на солнечный нагрев. Характеристика знойности погоды. Зависит от высоты солнца над горизонтом, облачности и скорости ветра. Ночью, в пасмурную погоду, а также при ветре 12 м/с и более поправка равна нулю.
P - Атмосферное давление - приведенное к уровню моря атмосферное давление.
Po - Атмосферное давление - измеренное на уровне метеостанции атмосферное давление.
Tmin - Минимальная температура - минимум температуры воздуха на высоте 2 м над землей.
Tmax - Максимальная температура - максимум температуры воздуха на высоте 2 м над землей.
R - Количество осадков - Количество выпавших осадков за период времени, мм. При наведении курсора мыши на число - период времени, за который выпало указанное количество осадков.
R24 - Количество осадков - Количество выпавших осадков за 24 часа, мм.
S - Снежный покров - Высота снежного покрова, см. При наведении курсора мыши на число - состояние снежного покрова и степень покрытия местности в баллах.